Погода в Сибу

Малайзия     2°15′47″N   111°51′32″E
темп.,
°C
ветер,
м/с
пор.,
м/с
влажн.,
%
обл.,
%
осадки,
мм/ч
давл.,
гПа
погр.,
м
2 августа, пн
пн223:00+24ююз009899 1.4 101113
02:00+24ю119893 1.9 100914
05:00+23юв129884 0.2 101063
08:00+24юв2697100 3.0 1011228
11:00+26в1384100 0.1 1011292
14:00+26всв1184100 0.2 1009164
17:00+28с1178100 0.1 100892
20:00+26зюз1185100 0.1 100923
3 августа, вт
вт323:00+25св018896 0.0 101114
02:00+23ююв119569 0.0 101013
05:00+23ююв119490 0.0 101021
08:00+25ююв128373 0.0 1012135
11:00+32ю2353100 0.0 10111138
14:00+35ююз2341100 0.0 10082144
17:00+33юз234975 0.0 1007998
20:00+26с127798 0.0 100934
4 августа, ср
ср423:00+26ссз1183100 0.0 101114
02:00+25ююз0086100 0.0 101015
05:00+24ююв1190100 0.0 101034
08:00+27вюв118115 0.0 1012172
11:00+34зсз115310 0.6 10111279
14:00+28з2582100 1.8 1009354
17:00+30сз2471100 1.8 1008484
20:00+25с1191100 2.9 101012
5 августа, чт
чт523:00+24ссз1195100 0.4 101211
02:00+24сз0097100 0.4 101014
05:00+24ююв1199100 1.8 101027
08:00+25юв149683 2.3 1012174
11:00+31ююв116230 2.3 1011815
14:00+33юв125489 2.9 10081523
17:00+28ю138274 1.2 1007126
20:00+25ссв009498 2.1 100911
6 августа, пт
пт623:00+24в119760 0.4 101123
02:00+24вюв019882 0.5 100914
05:00+23юв1498100 0.1 1009106
08:00+25юв129293 0.1 1011126
11:00+28юв1176100 0.0 1011429
14:00+33ююз224985 0.0 10081502
17:00+33ююз2251100 0.0 10071178
20:00+26з128296 0.3 100934